カタログに戻る

STARLINK-36746

運用中通信SSO
NORAD 67733·PAYLOAD·🇺🇸 United States

打ち上げ Feb 11, 2026 から Vandenberg Space Force Base

Loading…

次のパス (今後24時間)

TLE

最新Source: CelesTrak SupGP

元期: Sep 14, 2026, 21:22 UTC

1 67733C 26026N   26257.89076389 -.00008316  00000+0 -25767-3 0  2570
2 67733  97.2850 309.8006 0001422  93.1907 177.7478 15.33501186    18

AllMySatでSTARLINK-36746をリアルタイム追跡

Download on the App Store